Milford, UT

8:59 PM MDT on August 23, 2016 (GMT -0600)
Milford Municipal

Weather History for KMLF - September, 2013

Change the Weather History Date:

Saturday, September 28, 2013

  Actual Average Record
Temperature  
Mean Temperature 48 °F -  
Max Temperature 70 °F 75 °F 93 °F (2010)
Min Temperature 27 °F 39 °F 27 °F (2013)
Degree Days  
Heating Degree Days 16    
Moisture  
Dew Point 18 °F    
Average Humidity 41    
Maximum Humidity 85    
Minimum Humidity 4    
Precipitation  
Precipitation 0.00 in - - ()
Sea Level Pressure  
Sea Level Pressure 30.16 in    
Wind  
Wind Speed 7 mph (SSW)    
Max Wind Speed 16 mph    
Max Gust Speed 21 mph    
Visibility 10 miles    
Events      
Averages and records for this station are not official NWS values.
T = Trace of Precipitation, MM = Missing Value Source: NWS Daily Summary

Daily Weather History Graph

Daily Weather History Graph

Search for Another Location

Airport or City:

Trip Planner

Search our weather history database for the weather conditions in past years. The results will help you decide how hot, cold, wet, or windy it might be!

Date:

Astronomy

Sep. 28, 2013 Rise Set
Actual Time 7:25 AM MDT 7:19 PM MDT
Civil Twilight 6:59 AM MDT 7:45 PM MDT
Nautical Twilight 6:28 AM MDT 8:16 PM MDT
Astronomical Twilight 5:57 AM MDT 8:47 PM MDT
Moon 1:20 AM MDT (9/28) 3:36 PM MDT (9/28)
Length of Visible Light 12h 46m
Length of Day
11h 53m
Waning Crescent, 35% of the Moon is Illuminated
Sep 28
Waning Crescent
Oct 4
New
Oct 11
First Quarter
Oct 18
Full
Oct 26
Last Quarter

Hourly Weather History & Observations

Time (MDT) Temp. Windchill Dew Point Humidity Pressure Visibility Wind Dir Wind Speed Gust Speed Precip Events Conditions
12:52 AM 37.9 °F 35.5 °F 28.9 °F 70% 30.17 in 10.0 mi West 3.5 mph - N/A   Clear
1:52 AM 36.0 °F 33.3 °F 27.0 °F 70% 30.19 in 10.0 mi SW 3.5 mph - N/A   Clear
2:52 AM 32.0 °F 27.5 °F 27.0 °F 82% 30.19 in 10.0 mi SSW 4.6 mph - N/A   Clear
3:52 AM 30.0 °F 24.1 °F 26.1 °F 85% 30.17 in 10.0 mi WSW 5.8 mph - N/A   Clear
4:52 AM 30.0 °F 25.2 °F 25.0 °F 82% 30.17 in 10.0 mi South 4.6 mph - N/A   Clear
5:52 AM 30.0 °F - 25.0 °F 82% 30.19 in 10.0 mi Calm Calm - N/A   Clear
6:52 AM 28.0 °F 22.8 °F 24.1 °F 85% 30.21 in 10.0 mi SSW 4.6 mph - N/A   Clear
7:52 AM 27.0 °F - 23.0 °F 85% 30.26 in 10.0 mi Calm Calm - N/A   Clear
8:52 AM 37.0 °F 31.0 °F 27.0 °F 67% 30.25 in 10.0 mi SSW 8.1 mph - N/A   Clear
9:52 AM 42.1 °F 36.6 °F 27.0 °F 55% 30.25 in 10.0 mi South 9.2 mph - N/A   Clear
10:52 AM 50.0 °F - 27.0 °F 41% 30.22 in 10.0 mi South 8.1 mph - N/A   Clear
11:52 AM 57.0 °F - 21.9 °F 26% 30.20 in 10.0 mi South 8.1 mph - N/A   Clear
12:52 PM 62.1 °F - 19.9 °F 20% 30.17 in 10.0 mi SSW 11.5 mph - N/A   Clear
1:52 PM 64.0 °F - 17.1 °F 16% 30.14 in 10.0 mi South 12.7 mph 18.4 mph N/A   Clear
2:52 PM 66.9 °F - -0.0 °F 7% 30.11 in 10.0 mi South 15.0 mph - N/A   Clear
3:52 PM 69.1 °F - 1.0 °F 7% 30.10 in 10.0 mi SSW 11.5 mph 20.7 mph N/A   Clear
4:52 PM 70.0 °F - 1.9 °F 7% 30.09 in 10.0 mi SSW 13.8 mph - N/A   Clear
5:52 PM 69.1 °F - 7.0 °F 9% 30.07 in 10.0 mi SSW 10.4 mph - N/A   Clear
6:52 PM 66.9 °F - 14.0 °F 13% 30.08 in 10.0 mi South 9.2 mph - N/A   Clear
7:52 PM 55.9 °F - 19.9 °F 25% 30.12 in 10.0 mi South 6.9 mph - N/A   Clear
8:52 PM 57.9 °F - 15.1 °F 19% 30.10 in 10.0 mi SSW 13.8 mph - N/A   Clear
9:52 PM 57.0 °F - 7.0 °F 14% 30.11 in 10.0 mi South 16.1 mph - N/A   Clear
10:52 PM 52.0 °F - 9.0 °F 18% 30.11 in 10.0 mi SSW 12.7 mph - N/A   Clear
11:52 PM 51.1 °F - 10.9 °F 20% 30.11 in 10.0 mi SW 12.7 mph - N/A   Clear